Year,Month,Day,Hour,Minute,Value (Times are PST for temperature in C)
2020,05,04,00,00,5.90
2020,05,04,00,01,5.90
2020,05,04,00,02,5.90
2020,05,04,00,03,5.90
2020,05,04,00,04,5.90
2020,05,04,00,05,5.90
2020,05,04,00,06,5.90
2020,05,04,00,07,5.90
2020,05,04,00,08,5.90
2020,05,04,00,09,5.90
2020,05,04,00,10,5.90
2020,05,04,00,11,5.90
2020,05,04,00,12,5.90
2020,05,04,00,13,5.80
2020,05,04,00,14,5.80
2020,05,04,00,15,5.80
2020,05,04,00,16,5.80
2020,05,04,00,17,5.80
2020,05,04,00,18,5.80
2020,05,04,00,19,5.80
2020,05,04,00,20,5.80
2020,05,04,00,21,5.80
2020,05,04,00,22,5.80
2020,05,04,00,23,5.80
2020,05,04,00,24,5.80
2020,05,04,00,25,5.80
2020,05,04,00,26,5.80
2020,05,04,00,27,5.80
2020,05,04,00,28,5.80
2020,05,04,00,29,5.80
2020,05,04,00,30,5.80
2020,05,04,00,31,5.80
2020,05,04,00,32,5.80
2020,05,04,00,33,5.80
2020,05,04,00,34,5.80
2020,05,04,00,35,5.80
2020,05,04,00,36,5.80
2020,05,04,00,37,5.80
2020,05,04,00,38,5.80
2020,05,04,00,39,5.80
2020,05,04,00,40,5.80
2020,05,04,00,41,5.80
2020,05,04,00,42,5.80
2020,05,04,00,43,5.80
2020,05,04,00,44,5.70
2020,05,04,00,45,5.80
2020,05,04,00,46,5.70
2020,05,04,00,47,5.70
2020,05,04,00,48,5.70
2020,05,04,00,49,5.70
2020,05,04,00,50,5.70
2020,05,04,00,51,5.70
2020,05,04,00,52,5.70
2020,05,04,00,53,5.70
2020,05,04,00,54,5.70
2020,05,04,00,55,5.70
2020,05,04,00,56,5.70
2020,05,04,00,57,5.70
2020,05,04,00,58,5.70
2020,05,04,00,59,5.70
2020,05,04,01,00,5.70
2020,05,04,01,01,5.70
2020,05,04,01,02,5.70
2020,05,04,01,03,5.70
2020,05,04,01,04,5.70
2020,05,04,01,05,5.70
2020,05,04,01,06,5.70
2020,05,04,01,07,5.70
2020,05,04,01,08,5.70
2020,05,04,01,09,5.70
2020,05,04,01,10,5.70
2020,05,04,01,11,5.70
2020,05,04,01,12,5.70
2020,05,04,01,13,5.70
2020,05,04,01,14,5.70
2020,05,04,01,15,5.70
2020,05,04,01,16,5.70
2020,05,04,01,17,5.60
2020,05,04,01,18,5.70
2020,05,04,01,19,5.60
2020,05,04,01,20,5.60
2020,05,04,01,21,5.60
2020,05,04,01,22,5.60
2020,05,04,01,23,5.60
2020,05,04,01,24,5.60
2020,05,04,01,25,5.60
2020,05,04,01,26,5.60
2020,05,04,01,27,5.60
2020,05,04,01,28,5.60
2020,05,04,01,29,5.60
2020,05,04,01,30,5.60
2020,05,04,01,31,5.50
2020,05,04,01,32,5.50
2020,05,04,01,33,5.50
2020,05,04,01,34,5.50
2020,05,04,01,35,5.50
2020,05,04,01,36,5.50
2020,05,04,01,37,5.50
2020,05,04,01,38,5.50
2020,05,04,01,39,5.50
2020,05,04,01,40,5.50
2020,05,04,01,41,5.50
2020,05,04,01,42,5.40
2020,05,04,01,43,5.40
2020,05,04,01,44,5.40
2020,05,04,01,45,5.40
2020,05,04,01,46,5.40
2020,05,04,01,47,5.40
2020,05,04,01,48,5.40
2020,05,04,01,49,5.40
2020,05,04,01,50,5.40
2020,05,04,01,51,5.40
2020,05,04,01,52,5.40
2020,05,04,01,53,5.40
2020,05,04,01,54,5.40
2020,05,04,01,55,5.40
2020,05,04,01,56,5.40
2020,05,04,01,57,5.40
2020,05,04,01,58,5.40
2020,05,04,01,59,5.40
2020,05,04,02,00,5.40
2020,05,04,02,01,5.40
2020,05,04,02,02,5.40
2020,05,04,02,03,5.40
2020,05,04,02,04,5.30
2020,05,04,02,05,5.30
2020,05,04,02,06,5.30
2020,05,04,02,07,5.30
2020,05,04,02,08,5.20
2020,05,04,02,09,5.20
2020,05,04,02,10,5.20
2020,05,04,02,11,5.20
2020,05,04,02,12,5.20
2020,05,04,02,13,5.10
2020,05,04,02,14,5.10
2020,05,04,02,15,5.10
2020,05,04,02,16,5.10
2020,05,04,02,17,5.10
2020,05,04,02,18,5.00
2020,05,04,02,19,5.00
2020,05,04,02,20,5.00
2020,05,04,02,21,4.90
2020,05,04,02,22,4.90
2020,05,04,02,23,4.90
2020,05,04,02,24,4.90
2020,05,04,02,25,4.90
2020,05,04,02,26,4.90
2020,05,04,02,27,4.90
2020,05,04,02,28,4.90
2020,05,04,02,29,4.90
2020,05,04,02,30,4.90
2020,05,04,02,31,4.80
2020,05,04,02,32,4.80
2020,05,04,02,33,4.90
2020,05,04,02,34,4.90
2020,05,04,02,35,4.90
2020,05,04,02,36,4.90
2020,05,04,02,37,4.90
2020,05,04,02,38,4.90
2020,05,04,02,39,4.90
2020,05,04,02,40,4.90
2020,05,04,02,41,4.90
2020,05,04,02,42,4.90
2020,05,04,02,43,4.90
2020,05,04,02,44,4.90
2020,05,04,02,45,4.90
2020,05,04,02,46,4.90
2020,05,04,02,47,4.90
2020,05,04,02,48,4.90
2020,05,04,02,49,4.90
2020,05,04,02,50,4.90
2020,05,04,02,51,4.90
2020,05,04,02,52,4.90
2020,05,04,02,53,4.90
2020,05,04,02,54,4.90
2020,05,04,02,55,4.90
2020,05,04,02,56,4.90
2020,05,04,02,57,4.90
2020,05,04,02,58,4.90
2020,05,04,02,59,4.90
2020,05,04,03,00,4.90
2020,05,04,03,01,4.90
2020,05,04,03,02,4.90
2020,05,04,03,03,4.90
2020,05,04,03,04,4.90
2020,05,04,03,05,4.90
2020,05,04,03,06,4.80
2020,05,04,03,07,4.80
2020,05,04,03,08,4.80
2020,05,04,03,09,4.80
2020,05,04,03,10,4.80
2020,05,04,03,11,4.80
2020,05,04,03,12,4.80
2020,05,04,03,13,4.80
2020,05,04,03,14,4.80
2020,05,04,03,15,4.80
2020,05,04,03,16,4.80
2020,05,04,03,17,4.80
2020,05,04,03,18,4.80
2020,05,04,03,19,4.70
2020,05,04,03,20,4.70
2020,05,04,03,21,4.70
2020,05,04,03,22,4.70
2020,05,04,03,23,4.70
2020,05,04,03,24,4.70
2020,05,04,03,25,4.60
2020,05,04,03,26,4.60
2020,05,04,03,27,4.60
2020,05,04,03,28,4.60
2020,05,04,03,29,4.60
2020,05,04,03,30,4.60
2020,05,04,03,31,4.60
2020,05,04,03,32,4.60
2020,05,04,03,33,4.60
2020,05,04,03,34,4.60
2020,05,04,03,35,4.60
2020,05,04,03,36,4.60
2020,05,04,03,37,4.50
2020,05,04,03,38,4.50
2020,05,04,03,39,4.50
2020,05,04,03,40,4.50
2020,05,04,03,41,4.50
2020,05,04,03,42,4.50
2020,05,04,03,43,4.50
2020,05,04,03,44,4.50
2020,05,04,03,45,4.40
2020,05,04,03,46,4.40
2020,05,04,03,47,4.50
2020,05,04,03,48,4.40
2020,05,04,03,49,4.40
2020,05,04,03,50,4.40
2020,05,04,03,51,4.40
2020,05,04,03,52,4.40
2020,05,04,03,53,4.40
2020,05,04,03,54,4.40
2020,05,04,03,55,4.40
2020,05,04,03,56,4.40
2020,05,04,03,57,4.40
2020,05,04,03,58,4.40
2020,05,04,03,59,4.40
2020,05,04,04,00,4.30
2020,05,04,04,01,4.30
2020,05,04,04,02,4.40
2020,05,04,04,03,4.40
2020,05,04,04,04,4.40
2020,05,04,04,05,4.40
2020,05,04,04,06,4.40
2020,05,04,04,07,4.40
2020,05,04,04,08,4.40
2020,05,04,04,09,4.40
2020,05,04,04,10,4.50
2020,05,04,04,11,4.50
2020,05,04,04,12,4.60
2020,05,04,04,13,4.60
2020,05,04,04,14,4.60
2020,05,04,04,15,4.60
2020,05,04,04,16,4.70
2020,05,04,04,17,4.70
2020,05,04,04,18,4.70
2020,05,04,04,19,4.70
2020,05,04,04,20,4.70
2020,05,04,04,21,4.70
2020,05,04,04,22,4.70
2020,05,04,04,23,4.70
2020,05,04,04,24,4.70
2020,05,04,04,25,4.70
2020,05,04,04,26,4.70
2020,05,04,04,27,4.70
2020,05,04,04,28,4.70
2020,05,04,04,29,4.70
2020,05,04,04,30,4.70
2020,05,04,04,31,4.80
2020,05,04,04,32,4.80
2020,05,04,04,33,4.80
2020,05,04,04,34,4.80
2020,05,04,04,35,4.80
2020,05,04,04,36,4.80
2020,05,04,04,37,4.80
2020,05,04,04,38,4.80
2020,05,04,04,39,4.90
2020,05,04,04,40,4.90
2020,05,04,04,41,4.90
2020,05,04,04,42,5.00
2020,05,04,04,43,5.00
2020,05,04,04,44,5.10
2020,05,04,04,45,5.10
2020,05,04,04,46,5.10
2020,05,04,04,47,5.20
2020,05,04,04,48,5.20
2020,05,04,04,49,5.20
2020,05,04,04,50,5.20
2020,05,04,04,51,5.20
2020,05,04,04,52,5.20
2020,05,04,04,53,5.20
2020,05,04,04,54,5.20
2020,05,04,04,55,5.10
2020,05,04,04,56,5.10
2020,05,04,04,57,5.00
2020,05,04,04,58,5.00
2020,05,04,04,59,5.00
2020,05,04,05,00,4.90
2020,05,04,05,01,4.90
2020,05,04,05,02,4.90
2020,05,04,05,03,4.90
2020,05,04,05,04,4.90
2020,05,04,05,05,4.90
2020,05,04,05,06,4.80
2020,05,04,05,07,4.90
2020,05,04,05,08,4.80
2020,05,04,05,09,4.80
2020,05,04,05,10,4.80
2020,05,04,05,11,4.80
2020,05,04,05,12,4.80
2020,05,04,05,13,4.80
2020,05,04,05,14,4.80
2020,05,04,05,15,4.80
2020,05,04,05,16,4.80
2020,05,04,05,17,4.80
2020,05,04,05,18,4.80
2020,05,04,05,19,4.80
2020,05,04,05,20,4.80
2020,05,04,05,21,4.80
2020,05,04,05,22,4.80
2020,05,04,05,23,4.80
2020,05,04,05,24,4.80
2020,05,04,05,25,4.80
2020,05,04,05,26,4.80
2020,05,04,05,27,4.90
2020,05,04,05,28,4.90
2020,05,04,05,29,4.90
2020,05,04,05,30,4.90
2020,05,04,05,31,4.90
2020,05,04,05,32,4.90
2020,05,04,05,33,4.90
2020,05,04,05,34,4.90
2020,05,04,05,35,4.90
2020,05,04,05,36,4.90
2020,05,04,05,37,4.90
2020,05,04,05,38,4.90
2020,05,04,05,39,4.90
2020,05,04,05,40,4.90
2020,05,04,05,41,4.90
2020,05,04,05,42,4.90
2020,05,04,05,43,4.90
2020,05,04,05,44,4.90
2020,05,04,05,45,4.90
2020,05,04,05,46,4.90
2020,05,04,05,47,4.90
2020,05,04,05,48,4.90
2020,05,04,05,49,4.90
2020,05,04,05,50,4.90
2020,05,04,05,51,4.90
2020,05,04,05,52,4.90
2020,05,04,05,53,4.90
2020,05,04,05,54,4.90
2020,05,04,05,55,4.90
2020,05,04,05,56,4.90
2020,05,04,05,57,4.90
2020,05,04,05,58,4.90
2020,05,04,05,59,4.90
2020,05,04,06,00,4.90
2020,05,04,06,01,4.90
2020,05,04,06,02,4.90
2020,05,04,06,03,5.00
2020,05,04,06,04,5.00
2020,05,04,06,05,5.00
2020,05,04,06,06,5.10
2020,05,04,06,07,5.10
2020,05,04,06,08,5.10
2020,05,04,06,09,5.10
2020,05,04,06,10,5.20
2020,05,04,06,11,5.20
2020,05,04,06,12,5.20
2020,05,04,06,13,5.20
2020,05,04,06,14,5.30
2020,05,04,06,15,5.30
2020,05,04,06,16,5.40
2020,05,04,06,17,5.40
2020,05,04,06,18,5.50
2020,05,04,06,19,5.50
2020,05,04,06,20,5.60
2020,05,04,06,21,5.60
2020,05,04,06,22,5.70
2020,05,04,06,23,5.70
2020,05,04,06,24,5.70
2020,05,04,06,25,5.80
2020,05,04,06,26,5.80
2020,05,04,06,27,5.80
2020,05,04,06,28,5.80
2020,05,04,06,29,5.80
2020,05,04,06,30,5.80
2020,05,04,06,31,5.90
2020,05,04,06,32,5.80
2020,05,04,06,33,5.80
2020,05,04,06,34,5.80
2020,05,04,06,35,5.80
2020,05,04,06,36,5.80
2020,05,04,06,37,5.80
2020,05,04,06,38,5.80
2020,05,04,06,39,5.80
2020,05,04,06,40,5.80
2020,05,04,06,41,5.80
2020,05,04,06,42,5.80
2020,05,04,06,43,5.80
2020,05,04,06,44,5.80
2020,05,04,06,45,5.80
2020,05,04,06,46,5.80
2020,05,04,06,47,5.80
2020,05,04,06,48,5.80
2020,05,04,06,49,5.70
2020,05,04,06,50,5.80
2020,05,04,06,51,5.70
2020,05,04,06,52,5.70
2020,05,04,06,53,5.70
2020,05,04,06,54,5.70
2020,05,04,06,55,5.70
2020,05,04,06,56,5.70
2020,05,04,06,57,5.70
2020,05,04,06,58,5.70
2020,05,04,06,59,5.70
2020,05,04,07,00,5.70
2020,05,04,07,01,5.70
2020,05,04,07,02,5.70
2020,05,04,07,03,5.70
2020,05,04,07,04,5.70
2020,05,04,07,05,5.70
2020,05,04,07,06,5.70
2020,05,04,07,07,5.70
2020,05,04,07,08,5.70
2020,05,04,07,09,5.70
2020,05,04,07,10,5.80
2020,05,04,07,11,5.80
2020,05,04,07,12,5.80
2020,05,04,07,13,5.80
2020,05,04,07,14,5.80
2020,05,04,07,15,5.80
2020,05,04,07,16,5.80
2020,05,04,07,17,5.80
2020,05,04,07,18,5.80
2020,05,04,07,19,5.90
2020,05,04,07,20,5.90
2020,05,04,07,21,5.90
2020,05,04,07,22,5.90
2020,05,04,07,23,5.90
2020,05,04,07,24,5.90
2020,05,04,07,25,5.90
2020,05,04,07,26,6.00
2020,05,04,07,27,6.00
2020,05,04,07,28,6.00
2020,05,04,07,29,6.00
2020,05,04,07,30,6.00
2020,05,04,07,31,6.00
2020,05,04,07,32,6.10
2020,05,04,07,33,6.10
2020,05,04,07,34,6.10
2020,05,04,07,35,6.10
2020,05,04,07,36,6.10
2020,05,04,07,37,6.10
2020,05,04,07,38,6.20
2020,05,04,07,39,6.20
2020,05,04,07,40,6.20
2020,05,04,07,41,6.20
2020,05,04,07,42,6.20
2020,05,04,07,43,6.30
2020,05,04,07,44,6.30
2020,05,04,07,45,6.30
2020,05,04,07,46,6.30
2020,05,04,07,47,6.40
2020,05,04,07,48,6.40
2020,05,04,07,49,6.40
2020,05,04,07,50,6.50
2020,05,04,07,51,6.50
2020,05,04,07,52,6.50
2020,05,04,07,53,6.60
2020,05,04,07,54,6.60
2020,05,04,07,55,6.60
2020,05,04,07,56,6.70
2020,05,04,07,57,6.70
2020,05,04,07,58,6.80
2020,05,04,07,59,6.80
2020,05,04,08,00,6.90
2020,05,04,08,01,6.90
2020,05,04,08,02,6.90
2020,05,04,08,03,7.00
2020,05,04,08,04,7.00
2020,05,04,08,05,7.10
2020,05,04,08,06,7.10
2020,05,04,08,07,7.20
2020,05,04,08,08,7.20
2020,05,04,08,09,7.30
2020,05,04,08,10,7.30
2020,05,04,08,11,7.30
2020,05,04,08,12,7.30
2020,05,04,08,13,7.30
2020,05,04,08,14,7.30
2020,05,04,08,15,7.40
2020,05,04,08,16,7.40
2020,05,04,08,17,7.40
2020,05,04,08,18,7.50
2020,05,04,08,19,7.50
2020,05,04,08,20,7.50
2020,05,04,08,21,7.50
2020,05,04,08,22,7.50
2020,05,04,08,23,7.50
2020,05,04,08,24,7.50
2020,05,04,08,25,7.50
2020,05,04,08,26,7.50
2020,05,04,08,27,7.50
2020,05,04,08,28,7.50
2020,05,04,08,29,7.50
2020,05,04,08,30,7.50
2020,05,04,08,31,7.60
2020,05,04,08,32,7.60
2020,05,04,08,33,7.70
2020,05,04,08,34,7.70
2020,05,04,08,35,7.70
2020,05,04,08,36,7.70
2020,05,04,08,37,7.80
2020,05,04,08,38,7.80
2020,05,04,08,39,7.80
2020,05,04,08,40,7.80
2020,05,04,08,41,7.80
2020,05,04,08,42,7.90
2020,05,04,08,43,7.90
2020,05,04,08,44,7.90
2020,05,04,08,45,7.90
2020,05,04,08,46,7.90
2020,05,04,08,47,8.00
2020,05,04,08,48,8.00
2020,05,04,08,49,8.10
2020,05,04,08,50,8.10
2020,05,04,08,51,8.10
2020,05,04,08,52,8.20
2020,05,04,08,53,8.20
2020,05,04,08,54,8.30
2020,05,04,08,55,8.30
2020,05,04,08,56,8.30
2020,05,04,08,57,8.40
2020,05,04,08,58,8.40
2020,05,04,08,59,8.40
2020,05,04,09,00,8.40
2020,05,04,09,01,8.40
2020,05,04,09,02,8.50
2020,05,04,09,03,8.50
2020,05,04,09,04,8.60
2020,05,04,09,05,8.70
2020,05,04,09,06,8.70
2020,05,04,09,07,8.70
2020,05,04,09,08,8.80
2020,05,04,09,09,8.80
2020,05,04,09,10,8.80
2020,05,04,09,11,8.90
2020,05,04,09,12,8.90
2020,05,04,09,13,8.90
2020,05,04,09,14,8.90
2020,05,04,09,15,9.00
2020,05,04,09,16,9.00
2020,05,04,09,17,9.00
2020,05,04,09,18,9.10
2020,05,04,09,19,9.10
2020,05,04,09,20,9.10
2020,05,04,09,21,9.10
2020,05,04,09,22,9.10
2020,05,04,09,23,9.20
2020,05,04,09,24,9.20
2020,05,04,09,25,9.20
2020,05,04,09,26,9.20
2020,05,04,09,27,9.20
2020,05,04,09,28,9.20
2020,05,04,09,29,9.20
2020,05,04,09,30,9.30
2020,05,04,09,31,9.30
2020,05,04,09,32,9.20
2020,05,04,09,33,9.20
2020,05,04,09,34,9.20
2020,05,04,09,35,9.20
2020,05,04,09,36,9.20
2020,05,04,09,37,9.20
2020,05,04,09,38,9.20
2020,05,04,09,39,9.20
2020,05,04,09,40,9.20
2020,05,04,09,41,9.20
2020,05,04,09,42,9.20
2020,05,04,09,43,9.20
2020,05,04,09,44,9.20
2020,05,04,09,45,9.20
2020,05,04,09,46,9.20
2020,05,04,09,47,9.20
2020,05,04,09,48,9.30
2020,05,04,09,49,9.30
2020,05,04,09,50,9.30
2020,05,04,09,51,9.30
2020,05,04,09,52,9.30
2020,05,04,09,53,9.30
2020,05,04,09,54,9.30
2020,05,04,09,55,9.30
2020,05,04,09,56,9.30
2020,05,04,09,57,9.30
2020,05,04,09,58,9.30
2020,05,04,09,59,9.30
2020,05,04,10,00,9.30
2020,05,04,10,01,9.30
2020,05,04,10,02,9.40
2020,05,04,10,03,9.50
2020,05,04,10,04,9.60
2020,05,04,10,05,9.60
2020,05,04,10,06,9.70
2020,05,04,10,07,9.70
2020,05,04,10,08,9.80
2020,05,04,10,09,9.80
2020,05,04,10,10,9.90
2020,05,04,10,11,10.00
2020,05,04,10,12,10.10
2020,05,04,10,13,10.10
2020,05,04,10,14,10.10
2020,05,04,10,15,10.10
2020,05,04,10,16,10.10
2020,05,04,10,17,10.10
2020,05,04,10,18,10.10
2020,05,04,10,19,10.10
2020,05,04,10,20,10.10
2020,05,04,10,21,10.10
2020,05,04,10,22,10.10
2020,05,04,10,23,10.10
2020,05,04,10,24,10.10
2020,05,04,10,25,10.10
2020,05,04,10,26,10.10
2020,05,04,10,27,10.10
2020,05,04,10,28,10.10
2020,05,04,10,29,10.10
2020,05,04,10,30,10.20
2020,05,04,10,31,10.20
2020,05,04,10,32,10.20
2020,05,04,10,33,10.10
2020,05,04,10,34,10.10
2020,05,04,10,35,10.10
2020,05,04,10,36,10.10
2020,05,04,10,37,10.10
2020,05,04,10,38,10.20
2020,05,04,10,39,10.20
2020,05,04,10,40,10.20
2020,05,04,10,41,10.20
2020,05,04,10,42,10.20
2020,05,04,10,43,10.20
2020,05,04,10,44,10.20
2020,05,04,10,45,10.30
2020,05,04,10,46,10.30
2020,05,04,10,47,10.30
2020,05,04,10,48,10.30
2020,05,04,10,49,10.40
2020,05,04,10,50,10.40
2020,05,04,10,51,10.40
2020,05,04,10,52,10.50
2020,05,04,10,53,10.50
2020,05,04,10,54,10.50
2020,05,04,10,55,10.60
2020,05,04,10,56,10.60
2020,05,04,10,57,10.60
2020,05,04,10,58,10.60
2020,05,04,10,59,10.60
2020,05,04,11,00,10.60
2020,05,04,11,01,10.70
2020,05,04,11,02,10.70
2020,05,04,11,03,10.70
2020,05,04,11,04,10.70
2020,05,04,11,05,10.70
2020,05,04,11,06,10.70
2020,05,04,11,07,10.80
2020,05,04,11,08,10.80
2020,05,04,11,09,10.80
2020,05,04,11,10,10.80
2020,05,04,11,11,10.80
2020,05,04,11,12,10.80
2020,05,04,11,13,10.80
2020,05,04,11,14,10.80
2020,05,04,11,15,10.80
2020,05,04,11,16,10.80
2020,05,04,11,17,10.80
2020,05,04,11,18,10.80
2020,05,04,11,19,10.80
2020,05,04,11,20,10.80
2020,05,04,11,21,10.80
2020,05,04,11,22,10.80
2020,05,04,11,23,10.80
2020,05,04,11,24,10.80
2020,05,04,11,25,10.80
2020,05,04,11,26,10.90
2020,05,04,11,27,10.90
2020,05,04,11,28,11.00
2020,05,04,11,29,11.00
2020,05,04,11,30,11.00
2020,05,04,11,31,11.00
2020,05,04,11,32,11.10
2020,05,04,11,33,11.10
2020,05,04,11,34,11.10
2020,05,04,11,35,11.10
2020,05,04,11,36,11.10
2020,05,04,11,37,11.10
2020,05,04,11,38,11.20
2020,05,04,11,39,11.20
2020,05,04,11,40,11.20
2020,05,04,11,41,11.30
2020,05,04,11,42,11.30
2020,05,04,11,43,11.30
2020,05,04,11,44,11.30
2020,05,04,11,45,11.30
2020,05,04,11,46,11.30
2020,05,04,11,47,11.30
2020,05,04,11,48,11.30
2020,05,04,11,49,11.30
2020,05,04,11,50,11.30
2020,05,04,11,51,11.40
2020,05,04,11,52,11.30
2020,05,04,11,53,11.30
2020,05,04,11,54,11.30
2020,05,04,11,55,11.30
2020,05,04,11,56,11.30
2020,05,04,11,57,11.30
2020,05,04,11,58,11.30
2020,05,04,11,59,11.30
2020,05,04,12,00,11.30
2020,05,04,12,01,11.30
2020,05,04,12,02,11.30
2020,05,04,12,03,11.30
2020,05,04,12,04,11.30
2020,05,04,12,05,11.30
2020,05,04,12,06,11.30
2020,05,04,12,07,11.30
2020,05,04,12,08,11.30
2020,05,04,12,09,11.30
2020,05,04,12,10,11.30
2020,05,04,12,11,11.30
2020,05,04,12,12,11.40
2020,05,04,12,13,11.40
2020,05,04,12,14,11.40
2020,05,04,12,15,11.40
2020,05,04,12,16,11.40
2020,05,04,12,17,11.40
2020,05,04,12,18,11.30
2020,05,04,12,19,11.20
2020,05,04,12,20,11.20
2020,05,04,12,21,11.20
2020,05,04,12,22,11.10
2020,05,04,12,23,11.10
2020,05,04,12,24,11.10
2020,05,04,12,25,11.00
2020,05,04,12,26,11.00
2020,05,04,12,27,10.90
2020,05,04,12,28,10.90
2020,05,04,12,29,10.90
2020,05,04,12,30,10.90
2020,05,04,12,31,10.90
2020,05,04,12,32,10.80
2020,05,04,12,33,10.80
2020,05,04,12,34,10.80
2020,05,04,12,35,10.70
2020,05,04,12,36,10.70
2020,05,04,12,37,10.70
2020,05,04,12,38,10.70
2020,05,04,12,39,10.70
2020,05,04,12,40,10.70
2020,05,04,12,41,10.70
2020,05,04,12,42,10.70
2020,05,04,12,43,10.70
2020,05,04,12,44,10.70
2020,05,04,12,45,10.70
2020,05,04,12,46,10.70
2020,05,04,12,47,10.70
2020,05,04,12,48,10.70
2020,05,04,12,49,10.70
2020,05,04,12,50,10.80
2020,05,04,12,51,10.80
2020,05,04,12,52,10.80
2020,05,04,12,53,10.80
2020,05,04,12,54,10.80
2020,05,04,12,55,10.80
2020,05,04,12,56,10.80
2020,05,04,12,57,10.80
2020,05,04,12,58,10.80
2020,05,04,12,59,10.80
2020,05,04,13,00,10.90
2020,05,04,13,01,10.90
2020,05,04,13,02,10.90
2020,05,04,13,03,10.90
2020,05,04,13,04,10.90
2020,05,04,13,05,10.80
2020,05,04,13,06,10.80
2020,05,04,13,07,10.80
2020,05,04,13,08,10.80
2020,05,04,13,09,10.80
2020,05,04,13,10,10.80
2020,05,04,13,11,10.80
2020,05,04,13,12,10.80
2020,05,04,13,13,10.90
2020,05,04,13,14,10.90
2020,05,04,13,15,10.90
2020,05,04,13,16,11.00
2020,05,04,13,17,11.00
2020,05,04,13,18,11.10
2020,05,04,13,19,11.10
2020,05,04,13,20,11.20
2020,05,04,13,21,11.20
2020,05,04,13,22,11.30
2020,05,04,13,23,11.30
2020,05,04,13,24,11.40
2020,05,04,13,25,11.40
2020,05,04,13,26,11.40
2020,05,04,13,27,11.40
2020,05,04,13,28,11.50
2020,05,04,13,29,11.50
2020,05,04,13,30,11.50
2020,05,04,13,31,11.60
2020,05,04,13,32,11.60
2020,05,04,13,33,11.60
2020,05,04,13,34,11.70
2020,05,04,13,35,11.70
2020,05,04,13,36,11.70
2020,05,04,13,37,11.70
2020,05,04,13,38,11.70
2020,05,04,13,39,11.70
2020,05,04,13,40,11.70
2020,05,04,13,41,11.70
2020,05,04,13,42,11.70
2020,05,04,13,43,11.70
2020,05,04,13,44,11.70
2020,05,04,13,45,11.70
2020,05,04,13,46,11.80
2020,05,04,13,47,11.80
2020,05,04,13,48,11.80
2020,05,04,13,49,11.80
2020,05,04,13,50,11.80
2020,05,04,13,51,11.80
2020,05,04,13,52,11.80
2020,05,04,13,53,11.80
2020,05,04,13,54,11.90
2020,05,04,13,55,11.90
2020,05,04,13,56,11.90
2020,05,04,13,57,11.90
2020,05,04,13,58,12.00
2020,05,04,13,59,12.00
2020,05,04,14,00,12.20
2020,05,04,14,01,12.30
2020,05,04,14,02,12.40
2020,05,04,14,03,12.60
2020,05,04,14,04,12.70
2020,05,04,14,05,12.80
2020,05,04,14,06,12.80
2020,05,04,14,07,12.80
2020,05,04,14,08,12.90
2020,05,04,14,09,12.90
2020,05,04,14,10,13.00
2020,05,04,14,11,13.00
2020,05,04,14,12,13.10
2020,05,04,14,13,13.10
2020,05,04,14,14,13.10
2020,05,04,14,15,13.10
2020,05,04,14,16,13.10
2020,05,04,14,17,13.10
2020,05,04,14,18,13.20
2020,05,04,14,19,13.20
2020,05,04,14,20,13.20
2020,05,04,14,21,13.20
2020,05,04,14,22,13.20
2020,05,04,14,23,13.20
2020,05,04,14,24,13.20
2020,05,04,14,25,13.20
2020,05,04,14,26,13.20
2020,05,04,14,27,13.10
2020,05,04,14,28,13.10
2020,05,04,14,29,13.10
2020,05,04,14,30,13.10
2020,05,04,14,31,13.00
2020,05,04,14,32,13.00
2020,05,04,14,33,13.00
2020,05,04,14,34,13.00
2020,05,04,14,35,13.00
2020,05,04,14,36,12.90
2020,05,04,14,37,13.00
2020,05,04,14,38,12.90
2020,05,04,14,39,12.90
2020,05,04,14,40,12.90
2020,05,04,14,41,13.00
2020,05,04,14,42,13.00
2020,05,04,14,43,13.00
2020,05,04,14,44,13.00
2020,05,04,14,45,13.10
2020,05,04,14,46,13.10
2020,05,04,14,47,13.10
2020,05,04,14,48,13.10
2020,05,04,14,49,13.10
2020,05,04,14,50,13.10
2020,05,04,14,51,13.20
2020,05,04,14,52,13.20
2020,05,04,14,53,13.20
2020,05,04,14,54,13.20
2020,05,04,14,55,13.20
2020,05,04,14,56,13.20
2020,05,04,14,57,13.20
2020,05,04,14,58,13.30
2020,05,04,14,59,13.30
2020,05,04,15,00,13.40
2020,05,04,15,01,13.40
2020,05,04,15,02,13.50
2020,05,04,15,03,13.50
2020,05,04,15,04,13.50
2020,05,04,15,05,13.40
2020,05,04,15,06,13.40
2020,05,04,15,07,13.30
2020,05,04,15,08,13.30
2020,05,04,15,09,13.20
2020,05,04,15,10,13.10
2020,05,04,15,11,13.10
2020,05,04,15,12,13.00
2020,05,04,15,13,13.00
2020,05,04,15,14,13.00
2020,05,04,15,15,12.90
2020,05,04,15,16,12.90
2020,05,04,15,17,12.90
2020,05,04,15,18,12.80
2020,05,04,15,19,12.80
2020,05,04,15,20,12.80
2020,05,04,15,21,12.70
2020,05,04,15,22,12.70
2020,05,04,15,23,12.70
2020,05,04,15,24,12.70
2020,05,04,15,25,12.60
2020,05,04,15,26,12.70
2020,05,04,15,27,12.70
2020,05,04,15,28,12.70
2020,05,04,15,29,12.70
2020,05,04,15,30,12.80
2020,05,04,15,31,12.80
2020,05,04,15,32,12.90
2020,05,04,15,33,12.90
2020,05,04,15,34,13.00
2020,05,04,15,35,13.10
2020,05,04,15,36,13.20
2020,05,04,15,37,13.20
2020,05,04,15,38,13.30
2020,05,04,15,39,13.30
2020,05,04,15,40,13.40
2020,05,04,15,41,13.50
2020,05,04,15,42,13.50
2020,05,04,15,43,13.60
2020,05,04,15,44,13.70
2020,05,04,15,45,13.70
2020,05,04,15,46,13.70
2020,05,04,15,47,13.70
2020,05,04,15,48,13.70
2020,05,04,15,49,13.70
2020,05,04,15,50,13.70
2020,05,04,15,51,13.70
2020,05,04,15,52,13.70
2020,05,04,15,53,13.70
2020,05,04,15,54,13.70
2020,05,04,15,55,13.70
2020,05,04,15,56,13.60
2020,05,04,15,57,13.60
2020,05,04,15,58,13.60
2020,05,04,15,59,13.60
2020,05,04,16,00,13.60
2020,05,04,16,01,13.60
2020,05,04,16,02,13.70
2020,05,04,16,03,13.70
2020,05,04,16,04,13.70
2020,05,04,16,05,13.70
2020,05,04,16,06,13.70
2020,05,04,16,07,13.70
2020,05,04,16,08,13.70
2020,05,04,16,09,13.70
2020,05,04,16,10,13.70
2020,05,04,16,11,13.70
2020,05,04,16,12,13.70
2020,05,04,16,13,13.70
2020,05,04,16,14,13.70
2020,05,04,16,15,13.80
2020,05,04,16,16,13.80
2020,05,04,16,17,13.80
2020,05,04,16,18,13.80
2020,05,04,16,19,13.80
2020,05,04,16,20,13.80
2020,05,04,16,21,13.90
2020,05,04,16,22,13.90
2020,05,04,16,23,13.80
2020,05,04,16,24,13.90
2020,05,04,16,25,13.90
2020,05,04,16,26,13.90
2020,05,04,16,27,13.90
2020,05,04,16,28,13.90
2020,05,04,16,29,13.90
2020,05,04,16,30,13.90
2020,05,04,16,31,14.00
2020,05,04,16,32,14.00
2020,05,04,16,33,14.00
2020,05,04,16,34,14.00
2020,05,04,16,35,14.00
2020,05,04,16,36,14.00
2020,05,04,16,37,14.00
2020,05,04,16,38,14.00
2020,05,04,16,39,14.10
2020,05,04,16,40,14.10
2020,05,04,16,41,14.20
2020,05,04,16,42,14.30
2020,05,04,16,43,14.40
2020,05,04,16,44,14.60
2020,05,04,16,45,14.60
2020,05,04,16,46,14.70
2020,05,04,16,47,14.70
2020,05,04,16,48,14.70
2020,05,04,16,49,14.70
2020,05,04,16,50,14.70
2020,05,04,16,51,14.70
2020,05,04,16,52,14.70
2020,05,04,16,53,14.70
2020,05,04,16,54,14.70
2020,05,04,16,55,14.70
2020,05,04,16,56,14.60
2020,05,04,16,57,14.60
2020,05,04,16,58,14.60
2020,05,04,16,59,14.50
2020,05,04,17,00,14.50
2020,05,04,17,01,14.60
2020,05,04,17,02,14.60
2020,05,04,17,03,14.60
2020,05,04,17,04,14.60
2020,05,04,17,05,14.60
2020,05,04,17,06,14.60
2020,05,04,17,07,14.60
2020,05,04,17,08,14.50
2020,05,04,17,09,14.50
2020,05,04,17,10,14.50
2020,05,04,17,11,14.40
2020,05,04,17,12,14.40
2020,05,04,17,13,14.40
2020,05,04,17,14,14.40
2020,05,04,17,15,14.30
2020,05,04,17,16,14.30
2020,05,04,17,17,14.20
2020,05,04,17,18,14.10
2020,05,04,17,19,14.10
2020,05,04,17,20,14.10
2020,05,04,17,21,14.10
2020,05,04,17,22,14.10
2020,05,04,17,23,14.10
2020,05,04,17,24,14.10
2020,05,04,17,25,14.10
2020,05,04,17,26,14.10
2020,05,04,17,27,14.10
2020,05,04,17,28,14.10
2020,05,04,17,29,14.10
2020,05,04,17,30,14.20
2020,05,04,17,31,14.20
2020,05,04,17,32,14.20
2020,05,04,17,33,14.20
2020,05,04,17,34,14.20
2020,05,04,17,35,14.30
2020,05,04,17,36,14.30
2020,05,04,17,37,14.30
2020,05,04,17,38,14.30
2020,05,04,17,39,14.30
2020,05,04,17,40,14.40
2020,05,04,17,41,14.40
2020,05,04,17,42,14.40
2020,05,04,17,43,14.50
2020,05,04,17,44,14.50
2020,05,04,17,45,14.50
2020,05,04,17,46,14.50